Weather History for KMWM - November, 2012

Change the Weather History Date:

Saturday, November 24, 2012

  Actual Average Record
Temperature  
Mean Temperature 20 °F -  
Max Temperature 35 °F 34 °F 62 °F (2011)
Min Temperature 6 °F 17 °F -5 °F (1950)
Degree Days  
Heating Degree Days 44    
Moisture  
Dew Point 14 °F    
Average Humidity 70    
Maximum Humidity 93    
Minimum Humidity 48    
Precipitation  
Precipitation 0.00 in - - ()
Sea Level Pressure  
Sea Level Pressure 30.03 in    
Wind  
Wind Speed 6 mph (South)    
Max Wind Speed 18 mph    
Max Gust Speed 24 mph    
Visibility 10 miles    
Events      
Averages and records for this station are not official NWS values.
T = Trace of Precipitation, MM = Missing Value Source: NWS Daily Summary

Daily Weather History Graph

Daily Weather History Graph

Search for Another Location

Airport or City:

Trip Planner

Search our weather history database for the weather conditions in past years. The results will help you decide how hot, cold, wet, or windy it might be!

Date:

Astronomy

Nov. 24, 2012 Rise Set
Actual Time 7:27 AM CST 4:47 PM CST
Civil Twilight 6:55 AM CST 5:18 PM CST
Nautical Twilight 6:19 AM CST 5:54 PM CST
Astronomical Twilight 5:45 AM CST 6:28 PM CST
Moon 2:37 PM CST (11/24) 3:39 AM CST (11/24)
Length of Visible Light 10h 23m
Length of Day
9h 19m
Waxing Gibbous, 87% of the Moon is Illuminated
Nov 24
Waxing Gibbous
Nov 28
Full
Dec 6
Last Quarter
Dec 13
New
Dec 19
First Quarter

Hourly Weather History & Observations

Time (CST) Temp. Windchill Dew Point Humidity Pressure Visibility Wind Dir Wind Speed Gust Speed Precip Events Conditions
12:12 AM 10.4 °F 2.2 °F 6.8 °F 85% 30.33 in 10.0 mi NNW 4.6 mph - N/A   Clear
12:33 AM 10.4 °F 2.2 °F 8.6 °F 92% 30.33 in 10.0 mi WNW 4.6 mph - N/A   Clear
12:52 AM 10.4 °F 4.0 °F 8.6 °F 92% 30.31 in 10.0 mi NNW 3.5 mph - N/A   Clear
1:12 AM 10.4 °F 4.0 °F 8.6 °F 92% 30.31 in 10.0 mi West 3.5 mph - N/A   Clear
1:33 AM 10.4 °F - 6.8 °F 85% 30.30 in 10.0 mi Calm Calm - N/A   Clear
1:52 AM 10.4 °F 4.0 °F 6.8 °F 85% 30.29 in 10.0 mi West 3.5 mph - N/A   Clear
2:12 AM 8.6 °F - 6.8 °F 92% 30.29 in 10.0 mi Calm Calm - N/A   Clear
2:33 AM 6.8 °F - 5.0 °F 92% 30.29 in 10.0 mi Calm Calm - N/A   Clear
2:52 AM 8.6 °F - 6.8 °F 92% 30.29 in 10.0 mi Calm Calm - N/A   Clear
3:12 AM 8.6 °F - 6.8 °F 92% 30.28 in 10.0 mi Calm Calm - N/A   Clear
3:33 AM 10.4 °F - 8.6 °F 92% 30.27 in 10.0 mi Calm Calm - N/A   Clear
3:52 AM 10.4 °F - 8.6 °F 92% 30.26 in 10.0 mi Calm Calm - N/A   Clear
4:12 AM 12.2 °F - 10.4 °F 92% 30.25 in 10.0 mi Calm Calm - N/A   Clear
4:33 AM 12.2 °F - 8.6 °F 85% 30.25 in 10.0 mi Calm Calm - N/A   Clear
4:52 AM 12.2 °F - 8.6 °F 85% 30.25 in 10.0 mi Calm Calm - N/A   Clear
5:12 AM 12.2 °F - 10.4 °F 92% 30.25 in 10.0 mi Calm Calm - N/A   Clear
5:32 AM 12.2 °F - 10.4 °F 92% 30.24 in 10.0 mi Calm Calm - N/A   Mostly Cloudy
5:52 AM 12.2 °F - 10.4 °F 92% 30.23 in 10.0 mi Calm Calm - N/A   Overcast
6:13 AM 14.0 °F 8.2 °F 10.4 °F 86% 30.23 in 10.0 mi SSE 3.5 mph - N/A   Overcast
6:32 AM 14.0 °F 5.1 °F 10.4 °F 86% 30.22 in 10.0 mi SSE 5.8 mph - N/A   Overcast
6:53 AM 14.0 °F 5.1 °F 12.2 °F 93% 30.20 in 10.0 mi SSE 5.8 mph - N/A   Overcast
7:13 AM 15.8 °F 5.1 °F 12.2 °F 86% 30.20 in 10.0 mi SSE 8.1 mph - N/A   Overcast
7:32 AM 15.8 °F 6.1 °F 12.2 °F 86% 30.20 in 10.0 mi SSE 6.9 mph - N/A   Overcast
7:53 AM 15.8 °F 5.1 °F 12.2 °F 86% 30.18 in 10.0 mi SSE 8.1 mph - N/A   Overcast
8:12 AM 15.8 °F 5.1 °F 12.2 °F 86% 30.17 in 10.0 mi SSE 8.1 mph - N/A   Mostly Cloudy
8:32 AM 15.8 °F 4.2 °F 12.2 °F 86% 30.18 in 10.0 mi SSE 9.2 mph - N/A   Mostly Cloudy
8:53 AM 17.6 °F 6.4 °F 12.2 °F 79% 30.16 in 10.0 mi SSE 9.2 mph - N/A   Overcast
9:12 AM 17.6 °F 6.4 °F 14.0 °F 86% 30.15 in 10.0 mi SSE 9.2 mph - N/A   Overcast
9:33 AM 17.6 °F 6.4 °F 14.0 °F 86% 30.14 in 10.0 mi SSE 9.2 mph - N/A   Overcast
9:53 AM 19.4 °F 7.9 °F 14.0 °F 80% 30.14 in 10.0 mi SSE 10.4 mph - N/A   Scattered Clouds
10:12 AM 19.4 °F 8.6 °F 14.0 °F 80% 30.13 in 10.0 mi SSE 9.2 mph - N/A   Clear
10:33 AM 21.2 °F 11.7 °F 15.8 °F 80% 30.12 in 10.0 mi SSE 8.1 mph - N/A   Clear
10:52 AM 21.2 °F 10.9 °F 14.0 °F 74% 30.10 in 10.0 mi SSE 9.2 mph - N/A   Scattered Clouds
11:12 AM 23.0 °F 11.7 °F 15.8 °F 74% 30.08 in 10.0 mi SSE 11.5 mph - N/A   Scattered Clouds
11:32 AM 24.8 °F 13.4 °F 15.8 °F 69% 30.05 in 10.0 mi South 12.7 mph - N/A   Scattered Clouds
11:52 AM 26.6 °F 16.2 °F 15.8 °F 64% 30.03 in 10.0 mi SSE 11.5 mph - N/A   Mostly Cloudy
12:13 PM 26.6 °F 15.7 °F 15.8 °F 64% 30.00 in 10.0 mi SSE 12.7 mph 19.6 mph N/A   Mostly Cloudy
12:32 PM 28.4 °F 17.0 °F 15.8 °F 59% 29.99 in 10.0 mi SSE 15.0 mph - N/A   Mostly Cloudy
12:52 PM 30.2 °F 19.3 °F 15.8 °F 55% 29.96 in 10.0 mi SSE 15.0 mph 18.4 mph N/A   Mostly Cloudy
1:13 PM 32.0 °F 21.2 °F 15.8 °F 51% 29.94 in 10.0 mi SSE 16.1 mph 19.6 mph N/A   Scattered Clouds
1:32 PM 32.0 °F 21.6 °F 15.8 °F 51% 29.92 in 10.0 mi SSE 15.0 mph 20.7 mph N/A   Clear
1:52 PM 33.8 °F 23.5 °F 15.8 °F 48% 29.89 in 10.0 mi SSE 16.1 mph 19.6 mph N/A   Clear
2:13 PM 33.8 °F 22.8 °F 15.8 °F 48% 29.87 in 10.0 mi SSE 18.4 mph 23.0 mph N/A   Clear
2:32 PM 33.8 °F 23.9 °F 15.8 °F 48% 29.87 in 10.0 mi SSE 15.0 mph 24.2 mph N/A   Clear
2:52 PM 33.8 °F 24.8 °F 15.8 °F 48% 29.86 in 10.0 mi SSE 12.7 mph 16.1 mph N/A   Clear
3:13 PM 33.8 °F 24.3 °F 15.8 °F 48% 29.85 in 10.0 mi South 13.8 mph 19.6 mph N/A   Clear
3:32 PM 33.8 °F 24.3 °F 15.8 °F 48% 29.86 in 10.0 mi South 13.8 mph 21.9 mph N/A   Scattered Clouds
3:52 PM 33.8 °F 25.3 °F 17.6 °F 52% 29.85 in 10.0 mi South 11.5 mph 19.6 mph N/A   Mostly Cloudy
4:13 PM 33.8 °F 25.3 °F 17.6 °F 52% 29.84 in 10.0 mi South 11.5 mph 19.6 mph N/A   Mostly Cloudy
4:32 PM 33.8 °F 26.4 °F 17.6 °F 52% 29.83 in 10.0 mi South 9.2 mph - N/A   Mostly Cloudy
4:52 PM 33.8 °F 27.0 °F 17.6 °F 52% 29.83 in 10.0 mi South 8.1 mph - N/A   Mostly Cloudy
5:13 PM 33.8 °F 27.0 °F 17.6 °F 52% 29.82 in 10.0 mi South 8.1 mph - N/A   Scattered Clouds
5:32 PM 35.6 °F 28.6 °F 17.6 °F 48% 29.82 in 10.0 mi SSW 9.2 mph - N/A   Clear
5:52 PM 33.8 °F 27.0 °F 17.6 °F 52% 29.82 in 10.0 mi South 8.1 mph - N/A   Clear
6:13 PM 33.8 °F 26.4 °F 17.6 °F 52% 29.82 in 10.0 mi South 9.2 mph - N/A   Clear
6:32 PM 33.8 °F 26.4 °F 17.6 °F 52% 29.81 in 10.0 mi South 9.2 mph - N/A   Clear
6:52 PM 33.8 °F 26.4 °F 17.6 °F 52% 29.81 in 10.0 mi SSW 9.2 mph - N/A   Clear
7:13 PM 32.0 °F 25.6 °F 17.6 °F 55% 29.82 in 10.0 mi SSW 6.9 mph - N/A   Clear
7:32 PM 32.0 °F 25.6 °F 17.6 °F 55% 29.81 in 10.0 mi SSW 6.9 mph - N/A   Clear
7:52 PM 33.8 °F 27.7 °F 17.6 °F 52% 29.81 in 10.0 mi SSW 6.9 mph - N/A   Scattered Clouds
8:13 PM 33.8 °F 27.0 °F 17.6 °F 52% 29.80 in 10.0 mi SSW 8.1 mph - N/A   Mostly Cloudy
8:32 PM 32.0 °F 24.8 °F 17.6 °F 55% 29.80 in 10.0 mi SSW 8.1 mph - N/A   Mostly Cloudy
8:52 PM 32.0 °F 25.6 °F 17.6 °F 55% 29.79 in 10.0 mi SSW 6.9 mph - N/A   Mostly Cloudy
9:13 PM 32.0 °F 24.8 °F 19.4 °F 60% 29.79 in 10.0 mi SW 8.1 mph - N/A   Overcast
9:32 PM 32.0 °F 25.6 °F 19.4 °F 60% 29.79 in 10.0 mi SW 6.9 mph - N/A   Scattered Clouds
9:52 PM 32.0 °F 25.6 °F 19.4 °F 60% 29.78 in 10.0 mi SW 6.9 mph - N/A   Mostly Cloudy
10:13 PM 33.8 °F 28.6 °F 19.4 °F 56% 29.78 in 10.0 mi WSW 5.8 mph - N/A   Scattered Clouds
10:32 PM 32.0 °F 24.8 °F 19.4 °F 60% 29.80 in 10.0 mi West 8.1 mph - N/A   Clear
10:52 PM 32.0 °F 24.2 °F 19.4 °F 60% 29.80 in 10.0 mi West 9.2 mph - N/A   Clear
11:13 PM 30.2 °F 22.6 °F 19.4 °F 64% 29.80 in 10.0 mi West 8.1 mph - N/A   Clear
11:32 PM 28.4 °F 19.7 °F 17.6 °F 64% 29.80 in 10.0 mi West 9.2 mph - N/A   Clear
11:52 PM 28.4 °F 20.4 °F 19.4 °F 69% 29.81 in 10.0 mi West 8.1 mph - N/A   Mostly Cloudy